Location: Newark
(52.3735°N, 16.9806°E)
Time: 21:07:59
(UTC+00:00)

ISS - Pass Details

Date: 27 September 2021
Orbit: 417 x 423 km, 51.6° (Epoch: 18 October)

Event Time Altitude Azimuth Distance (km) Brightness Sun altitude
Rises 19:47:08 0° 282° (WNW) 2,368 1.0 -27.8°
Reaches altitude 10° 19:49:24 10° 270° (W) 1,503 -0.3 -28.1°
Enters shadow 19:49:55 13° 266° (W) 1,324 -0.7 -28.1°
